User: anonymous   Login
Location: Goheenville
(40.9070°N, 79.3720°W)
Time: 01:22:21
(UTC-04:00)
Language:

NOAA 11 - Orbit

View from above orbital plane
View from above orbital plane
View from above satellite
View from above satellite

Ground track
Ground track

The orbit data is extracted from the following two-line orbital elements,

1 19531U 88089A   17112.76302213 +.00000003 +00000-0 +22954-4 0  9997
2 19531 098.5570 173.4868 0011008 191.5298 168.5626 14.15206502474664
Epoch (UTC): 22 April 2017 18:18:45
Eccentricity: 0.0011008
inclination: 98.5570°
perigee height: 833 km
apogee height: 849 km
right ascension of ascending node: 173.4868°
argument of perigee: 191.5298°
revolutions per day: 14.15206502
mean anomaly at epoch: 168.5626°
orbit number at epoch: 47466

The dashed part of the orbit path shows where the satellite is in the earth's shadow,  

DLR